{"data":{"norad_id":69585,"epoch":"2026-09-20T02:15:22.376736Z","epoch_age_seconds":64054,"freshness":"FRESH","line1":"1 69585U 26138D   26263.09400899  .00000125  00000+0  14086-3 0  9990","line2":"2 69585  55.1400 290.5188 0012641 106.9464 253.2897 14.15933655 13469","mean_motion":14.15933655,"eccentricity":0.0012641,"inclination_deg":55.14,"raan_deg":290.5188,"arg_perigee_deg":106.9464,"mean_anomaly_deg":253.2897,"bstar":0.00014086,"rev_number":1346,"period_min":101.6996802721,"perigee_km":830.01438974059,"apogee_km":848.26110375532,"semimajor_km":7217.274746748,"source":"CELESTRAK","updated_at":"2026-09-20T09:00:24.996357Z"}}